Charles City, IA

2:23 PM CDT on May 22, 2018 (GMT -0500)
Charles City Municipal

Weather History for KCCY - April, 2013

Change the Weather History Date:

Friday, April 5, 2013

  Actual Average Record
Temperature  
Mean Temperature 38 °F -  
Max Temperature 48 °F 53 °F 85 °F (1991)
Min Temperature 28 °F 30 °F 14 °F (2018)
Degree Days  
Heating Degree Days 27    
Moisture  
Dew Point 27 °F    
Average Humidity 62    
Maximum Humidity 93    
Minimum Humidity 46    
Precipitation  
Precipitation 0.00 in - - ()
Sea Level Pressure  
Sea Level Pressure 30.11 in    
Wind  
Wind Speed 11 mph (East)    
Max Wind Speed 20 mph    
Max Gust Speed 26 mph    
Visibility 10 miles    
Events      
Averages and records for this station are not official NWS values.
T = Trace of Precipitation, MM = Missing Value Source: NWS Daily Summary

Daily Weather History Graph

Daily Weather History Graph

Search for Another Location

Airport or City:

Astronomy

Apr. 05, 2013 Rise Set
Actual Time 6:44 AM CDT 7:41 PM CDT
Civil Twilight 6:16 AM CDT 8:10 PM CDT
Nautical Twilight 5:41 AM CDT 8:45 PM CDT
Astronomical Twilight 5:05 AM CDT 9:21 PM CDT
Moon 3:59 AM CDT (4/5) 2:59 PM CDT (4/5)
Length of Visible Light 13h 54m
Length of Day
12h 56m
Waning Crescent, 23% of the Moon is Illuminated
Apr 5
Waning Crescent
Apr 10
New
Apr 18
First Quarter
Apr 25
Full
May 2
Last Quarter

Hourly Weather History & Observations

Time (CDT) Temp. Windchill Dew Point Humidity Pressure Visibility Wind Dir Wind Speed Gust Speed Precip Events Conditions
12:15 AM 35.6 °F 27.1 °F 28.4 °F 75% 30.12 in 10.0 mi NNW 12.7 mph - N/A   Clear
12:35 AM 33.8 °F 25.3 °F 28.4 °F 81% 30.12 in 10.0 mi NNW 11.5 mph - N/A   Clear
12:55 AM 33.8 °F 25.3 °F 28.4 °F 81% 30.13 in 10.0 mi NNW 11.5 mph - N/A   Clear
1:15 AM 33.8 °F 25.8 °F 28.4 °F 81% 30.13 in 10.0 mi NNW 10.4 mph - N/A   Clear
1:35 AM 33.8 °F 27.0 °F 28.4 °F 81% 30.14 in 10.0 mi NNW 8.1 mph - N/A   Clear
1:55 AM 32.0 °F 24.2 °F 28.4 °F 87% 30.15 in 10.0 mi NNW 9.2 mph - N/A   Clear
2:15 AM 32.0 °F 24.2 °F 28.4 °F 87% 30.14 in 10.0 mi NNW 9.2 mph - N/A   Clear
2:35 AM 32.0 °F 23.6 °F 28.4 °F 87% 30.15 in 10.0 mi North 10.4 mph - N/A   Clear
2:55 AM 32.0 °F 24.2 °F 28.4 °F 87% 30.15 in 10.0 mi NNW 9.2 mph - N/A   Clear
3:15 AM 32.0 °F 24.2 °F 28.4 °F 87% 30.15 in 10.0 mi NNW 9.2 mph - N/A   Clear
3:35 AM 30.2 °F 21.9 °F 28.4 °F 93% 30.15 in 10.0 mi NNW 9.2 mph - N/A   Clear
3:55 AM 30.2 °F 21.9 °F 28.4 °F 93% 30.16 in 10.0 mi NNW 9.2 mph - N/A   Clear
4:15 AM 30.2 °F 22.6 °F 26.6 °F 86% 30.16 in 10.0 mi NNW 8.1 mph - N/A   Clear
4:55 AM 30.2 °F 24.3 °F 26.6 °F 86% 30.18 in 10.0 mi North 5.8 mph - N/A   Clear
5:15 AM 30.2 °F 24.3 °F 26.6 °F 86% 30.18 in 10.0 mi North 5.8 mph - N/A   Clear
5:35 AM 30.2 °F 24.3 °F 24.8 °F 80% 30.19 in 10.0 mi NNW 5.8 mph - N/A   Clear
5:55 AM 28.4 °F 22.2 °F 24.8 °F 86% 30.19 in 10.0 mi North 5.8 mph - N/A   Clear
6:15 AM 30.2 °F 22.6 °F 24.8 °F 80% 30.18 in 10.0 mi NNE 8.1 mph - N/A   Clear
6:35 AM 30.2 °F 24.3 °F 24.8 °F 80% 30.19 in 10.0 mi North 5.8 mph - N/A   Mostly Cloudy
6:55 AM 30.2 °F 23.4 °F 24.8 °F 80% 30.20 in 10.0 mi NNE 6.9 mph - N/A   Mostly Cloudy
7:15 AM 32.0 °F 26.4 °F 24.8 °F 75% 30.20 in 10.0 mi NNE 5.8 mph - N/A   Overcast
7:35 AM 30.2 °F 23.4 °F 24.8 °F 80% 30.20 in 10.0 mi NE 6.9 mph - N/A   Scattered Clouds
7:55 AM 32.0 °F 24.2 °F 24.8 °F 75% 30.20 in 10.0 mi NE 9.2 mph - N/A   Clear
8:15 AM 33.8 °F 25.8 °F 24.8 °F 70% 30.21 in 10.0 mi NE 10.4 mph - N/A   Clear
8:35 AM 33.8 °F 26.4 °F 23.0 °F 65% 30.22 in 10.0 mi ENE 9.2 mph - N/A   Clear
8:55 AM 35.6 °F 28.0 °F 23.0 °F 60% 30.22 in 10.0 mi ENE 10.4 mph - N/A   Clear
9:15 AM 37.4 °F 29.8 °F 23.0 °F 56% 30.22 in 10.0 mi East 11.5 mph - N/A   Clear
9:35 AM 39.2 °F 32.0 °F 23.0 °F 52% 30.21 in 10.0 mi East 11.5 mph - N/A   Clear
9:55 AM 39.2 °F 32.5 °F 23.0 °F 52% 30.21 in 10.0 mi ESE 10.4 mph - N/A   Clear
10:15 AM 41.0 °F 33.9 °F 23.0 °F 49% 30.20 in 10.0 mi East 12.7 mph - N/A   Clear
10:35 AM 41.0 °F 34.3 °F 24.8 °F 53% 30.19 in 10.0 mi ESE 11.5 mph - N/A   Clear
10:55 AM 42.8 °F 36.6 °F 24.8 °F 49% 30.19 in 10.0 mi ESE 11.5 mph - N/A   Clear
11:15 AM 42.8 °F 35.8 °F 24.8 °F 49% 30.19 in 10.0 mi ESE 13.8 mph - N/A   Clear
11:35 AM 44.6 °F 38.8 °F 26.6 °F 49% 30.19 in 10.0 mi SE 11.5 mph - N/A   Clear
11:55 AM 44.6 °F 39.7 °F 24.8 °F 46% 30.18 in 10.0 mi SSE 9.2 mph 15.0 mph N/A   Partly Cloudy
12:15 PM 42.8 °F 37.5 °F 24.8 °F 49% 30.19 in 10.0 mi SE 9.2 mph - N/A   Mostly Cloudy
12:35 PM 44.6 °F 40.2 °F 24.8 °F 46% 30.19 in 10.0 mi SSE 8.1 mph - N/A   Overcast
12:55 PM 44.6 °F 39.7 °F 24.8 °F 46% 30.18 in 10.0 mi SE 9.2 mph - N/A   Scattered Clouds
1:15 PM 44.6 °F 39.2 °F 24.8 °F 46% 30.16 in 10.0 mi SE 10.4 mph - N/A   Scattered Clouds
1:35 PM 44.6 °F 38.4 °F 24.8 °F 46% 30.15 in 10.0 mi SE 12.7 mph - N/A   Mostly Cloudy
1:55 PM 44.6 °F 39.7 °F 24.8 °F 46% 30.14 in 10.0 mi SE 9.2 mph - N/A   Mostly Cloudy
2:15 PM 44.6 °F 38.4 °F 26.6 °F 49% 30.13 in 10.0 mi SE 12.7 mph - N/A   Mostly Cloudy
2:35 PM 44.6 °F 37.4 °F 24.8 °F 46% 30.12 in 10.0 mi SE 16.1 mph - N/A   Mostly Cloudy
2:55 PM 44.6 °F 38.8 °F 26.6 °F 49% 30.11 in 10.0 mi SE 11.5 mph - N/A   Scattered Clouds
3:15 PM 44.6 °F 38.8 °F 26.6 °F 49% 30.11 in 10.0 mi SE 11.5 mph - N/A   Scattered Clouds
3:35 PM 46.4 °F 40.1 °F 26.6 °F 46% 30.10 in 10.0 mi SE 15.0 mph - N/A   Scattered Clouds
3:55 PM 46.4 °F 40.7 °F 28.4 °F 50% 30.09 in 10.0 mi ESE 12.7 mph - N/A   Clear
4:15 PM 46.4 °F 40.1 °F 26.6 °F 46% 30.07 in 10.0 mi ESE 15.0 mph - N/A   Partly Cloudy
4:35 PM 48.2 °F - 28.4 °F 46% 30.06 in 10.0 mi ESE 15.0 mph - N/A   Mostly Cloudy
4:55 PM 46.4 °F 40.7 °F 28.4 °F 50% 30.06 in 10.0 mi ESE 12.7 mph - N/A   Scattered Clouds
5:15 PM 48.2 °F - 28.4 °F 46% 30.06 in 10.0 mi ESE 12.7 mph - N/A   Partly Cloudy
5:35 PM 48.2 °F - 28.4 °F 46% 30.03 in 10.0 mi ESE 16.1 mph - N/A   Scattered Clouds
5:55 PM 46.4 °F 39.5 °F 28.4 °F 50% 30.04 in 10.0 mi ESE 17.3 mph - N/A   Partly Cloudy
6:15 PM 46.4 °F 39.2 °F 28.4 °F 50% 30.02 in 10.0 mi ESE 18.4 mph - N/A   Partly Cloudy
6:35 PM 46.4 °F 40.1 °F 28.4 °F 50% 30.02 in 10.0 mi ESE 15.0 mph - N/A   Clear
6:55 PM 44.6 °F 36.9 °F 28.4 °F 53% 30.00 in 10.0 mi ESE 18.4 mph - N/A   Partly Cloudy
7:15 PM 44.6 °F 36.9 °F 30.2 °F 57% 29.98 in 10.0 mi ESE 18.4 mph - N/A   Scattered Clouds
7:35 PM 44.6 °F 37.2 °F 30.2 °F 57% 29.97 in 10.0 mi ESE 17.3 mph - N/A   Mostly Cloudy
7:55 PM 42.8 °F 34.5 °F 30.2 °F 61% 29.97 in 10.0 mi ESE 18.4 mph - N/A   Mostly Cloudy
8:15 PM 42.8 °F 34.5 °F 28.4 °F 57% 29.96 in 10.0 mi ESE 18.4 mph - N/A   Overcast
8:35 PM 42.8 °F 34.5 °F 28.4 °F 57% 29.96 in 10.0 mi ESE 18.4 mph 25.3 mph N/A   Overcast
8:55 PM 42.8 °F 35.4 °F 28.4 °F 57% 29.96 in 10.0 mi ESE 15.0 mph - N/A   Overcast
9:15 PM 42.8 °F 35.1 °F 28.4 °F 57% 29.96 in 10.0 mi ESE 16.1 mph - N/A   Overcast
9:35 PM 42.8 °F 34.8 °F 28.4 °F 57% 29.95 in 10.0 mi SE 17.3 mph - N/A   Overcast
9:55 PM 42.8 °F 34.5 °F 28.4 °F 57% 29.95 in 10.0 mi SE 18.4 mph - N/A   Overcast
10:15 PM 42.8 °F 34.8 °F 28.4 °F 57% 29.94 in 10.0 mi SE 17.3 mph 25.3 mph N/A   Overcast
10:55 PM 42.8 °F 35.1 °F 26.6 °F 53% 29.93 in 10.0 mi ESE 16.1 mph 21.9 mph N/A   Overcast
11:15 PM 42.8 °F 34.3 °F 26.6 °F 53% 29.92 in 10.0 mi ESE 19.6 mph - N/A   Overcast
11:35 PM 42.8 °F 34.5 °F 26.6 °F 53% 29.90 in 10.0 mi ESE 18.4 mph 26.5 mph N/A   Overcast
11:55 PM 42.8 °F 34.8 °F 26.6 °F 53% 29.90 in 10.0 mi ESE 17.3 mph 25.3 mph N/A   Overcast